Satellite: METEOR-M Catalog number: 35865 Epoch time: 11055.69786802 Element set: 131 Inclination: 098.7219 deg RA of node: 112.2101 deg Eccentricity: 0.0002819 Arg of perigee: 013.3527 deg Mean anomaly: 346.7676 deg Mean motion: 14.21834628 rev/day Decay rate: 1.76e-06 rev/day^2 Epoch rev: 7460 Checksum: 294
Satellite: RS-38 Catalog number: 35869 Epoch time: 11055.71143031 Element set: 142 Inclination: 098.7200 deg RA of node: 112.2653 deg Eccentricity: 0.0004844 Arg of perigee: 006.4233 deg Mean anomaly: 353.6970 deg Mean motion: 14.22000714 rev/day Decay rate: 1.77e-06 rev/day^2 Epoch rev: 7461 Checksum: 262
/EX